EW4077 Weather Reports


Display with metric or nautical units.
time (UTC)temp
F
wind
direction
speed
MPH
gust
MPH
rain 1hr
in
rain 24hr
in
rain mn
in
humidity
%
barometer
mb
20260901021517 69 281 7.0 14.0 0.00 0.00 0.00 83 1011.7
20260901020012 70 257 11.0 16.0 0.00 0.00 0.00 83 1011.8
20260901014510 70 219 11.0 16.0 0.00 0.00 0.00 82 1011.7
20260901013009 70 234 9.0 17.0 0.00 0.00 0.00 81 1011.7
20260901011509 71 238 9.0 18.0 0.00 0.00 0.00 82 1011.6
20260901010007 71 263 12.0 19.0 0.00 0.00 0.00 81 1011.6
20260901004505 71 244 13.0 19.0 0.00 0.00 0.00 81 1011.9
20260901003004 71 245 13.0 21.0 0.00 0.00 0.00 81 1011.9
20260901001508 72 263 13.0 22.0 0.00 0.00 0.00 81 1011.8
20260901000001 72 259 13.0 19.0 0.00 0.00 0.00 81 1011.9
20260831234602 72 257 15.0 24.0 0.00 0.00 0.00 82 1011.9
20260831233054 72 253 11.0 19.0 0.00 0.00 0.00 81 1012.0
20260831231553 73 216 11.0 19.0 0.00 0.00 0.00 80 1011.9
20260831230049 73 265 11.0 16.0 0.00 0.00 0.00 80 1011.8
20260831224547 73 234 12.0 18.0 0.00 0.00 0.00 79 1011.9
20260831223045 73 252 12.0 20.0 0.00 0.00 0.00 80 1012.1
20260831221546 73 225 13.0 20.0 0.00 0.00 0.00 80 1012.3
20260831220052 73 211 12.0 20.0 0.00 0.00 0.00 79 1012.4
20260831214543 74 227 11.0 17.0 0.00 0.00 0.00 77 1012.5
20260831213041 74 208 7.0 13.0 0.00 0.00 0.00 77 1012.8
20260831211533 74 243 6.0 14.0 0.00 0.00 0.00 78 1013.2
20260831210036 74 221 7.0 12.0 0.00 0.00 0.00 78 1013.2
20260831204532 74 248 5.0 14.0 0.00 0.00 0.00 78 1013.3
20260831203047 74 242 5.0 12.0 0.00 0.00 0.00 78 1013.4
20260831201530 74 219 6.0 12.0 0.00 0.00 0.00 77 1013.5
20260831200036 74 211 6.0 11.0 0.00 0.00 0.00 77 1013.5
20260831194528 74 213 6.0 11.0 0.00 0.00 0.00 77 1013.6
20260831193028 75 249 4.0 7.0 0.00 0.00 0.00 76 1013.7
20260831191527 75 268 3.0 7.0 0.00 0.00 0.00 76 1013.9
20260831190030 75 209 2.0 5.0 0.00 0.00 0.00 77 1013.8
20260831184530 74 246 3.0 6.0 0.00 0.00 0.00 77 1013.9
20260831183027 75 143 3.0 5.0 0.00 0.00 0.00 77 1014.0
20260831181527 75 206 3.0 7.0 0.00 0.00 0.00 77 1014.0
20260831180026 76 163 2.0 6.0 0.00 0.00 0.00 75 1013.9
20260831174522 75 191 3.0 5.0 0.00 0.00 0.00 76 1013.8
20260831173019 75 184 2.0 5.0 0.00 0.00 0.00 75 1013.7
20260831171517 75 201 2.0 5.0 0.00 0.00 0.00 77 1013.7
20260831170022 74 248 2.0 4.0 0.00 0.00 0.00 77 1013.6
20260831164511 74 153 2.0 0.0 0.00 0.00 0.00 79 1013.5
20260831163008 72 241 1.0 4.0 0.00 0.00 0.00 82 1013.4
20260831161510 72 240 3.0 6.0 0.00 0.00 0.00 82 1013.3
20260831160004 71 249 5.0 6.0 0.00 0.00 0.00 84 1013.3
20260831154503 71 242 4.0 5.0 0.00 0.00 0.00 84 1013.3
20260831153001 71 274 2.0 6.0 0.00 0.00 0.00 85 1013.2
20260831151600 71 254 2.0 4.0 0.00 0.00 0.00 85 1013.2
20260831150058 71 243 1.0 4.0 0.00 0.00 0.00 85 1013.0
20260831144555 71 211 1.0 4.0 0.00 0.00 0.00 86 1012.9
20260831143056 70 246 1.0 2.0 0.00 0.00 0.00 86 1012.9
20260831141552 69 247 1.0 3.0 0.00 0.00 0.00 86 1012.5
20260831140050 69 272 1.0 3.0 0.00 0.00 0.00 86 1012.3
20260831134548 68 260 1.0 4.0 0.00 0.00 0.00 87 1012.2
20260831133049 68 233 1.0 4.0 0.00 0.00 0.00 87 1012.1
20260831131550 69 236 1.0 3.0 0.00 0.00 0.00 87 1012.0
20260831130055 69 259 3.0 4.0 0.00 0.00 0.00 86 1011.9
20260831124551 69 268 3.0 5.0 0.00 0.00 0.00 86 1011.8
20260831123048 69 250 3.0 6.0 0.00 0.00 0.00 86 1011.7
20260831121543 69 248 3.0 5.0 0.00 0.00 0.00 86 1011.7
20260831120119 69 250 2.0 5.0 0.00 0.00 0.00 86 1011.7
20260831114540 69 245 4.0 5.0 0.00 0.00 0.00 86 1011.8
20260831113039 69 229 2.0 6.0 0.00 0.00 0.00 86 1011.8
20260831111548 69 246 2.0 6.0 0.00 0.00 0.00 86 1011.8
20260831110038 69 252 3.0 7.0 0.00 0.00 0.00 86 1011.8
20260831104540 69 254 4.0 6.0 0.00 0.00 0.00 86 1011.8
20260831103044 69 235 4.0 8.0 0.00 0.00 0.00 86 1011.8
20260831101536 70 261 4.0 9.0 0.00 0.00 0.00 86 1011.8
20260831100037 70 241 6.0 8.0 0.00 0.00 0.00 86 1011.8
20260831094531 70 238 4.0 8.0 0.00 0.00 0.00 86 1011.8
20260831093034 70 225 7.0 10.0 0.00 0.00 0.00 86 1011.7
20260831091529 70 233 6.0 10.0 0.00 0.00 0.00 87 1011.8
20260831090027 71 240 2.0 5.0 0.00 0.00 0.00 88 1011.6
20260831084624 71 207 1.0 3.0 0.00 0.00 0.00 88 1011.7
20260831083025 71 217 0.0 3.0 0.00 0.00 0.00 88 1011.8
20260831081533 71 204 1.0 3.0 0.00 0.00 0.00 87 1011.8
20260831080020 71 244 1.0 3.0 0.00 0.00 0.00 86 1011.9
20260831074622 72 224 1.0 2.0 0.00 0.00 0.00 85 1011.9
20260831073021 71 213 0.0 1.0 0.00 0.00 0.00 82 1011.8
20260831071516 71 303 0.0 1.0 0.00 0.00 0.00 83 1011.7
20260831070021 71 284 0.0 1.0 0.00 0.00 0.00 84 1011.6
20260831064512 71 259 0.0 3.0 0.00 0.00 0.00 85 1011.6
20260831063011 71 240 1.0 5.0 0.00 0.00 0.00 86 1011.6
20260831061512 71 271 2.0 4.0 0.00 0.00 0.00 87 1011.3
20260831060015 71 229 2.0 6.0 0.00 0.00 0.00 87 1011.5
20260831054608 71 239 3.0 6.0 0.00 0.00 0.00 87 1011.5
20260831053007 71 252 4.0 7.0 0.00 0.00 0.00 87 1011.4
20260831051506 72 242 5.0 9.0 0.00 0.00 0.00 86 1011.4
20260831050006 72 242 3.0 7.0 0.00 0.00 0.00 86 1011.6
20260831044504 72 224 5.0 9.0 0.00 0.00 0.00 85 1011.5
20260831043003 72 208 2.0 7.0 0.00 0.00 0.00 84 1011.3
20260831041503 72 219 3.0 7.0 0.00 0.00 0.00 82 1011.2
20260831040006 73 145 4.0 8.0 0.00 0.00 0.00 81 1011.1
20260831034501 73 242 6.0 11.0 0.00 0.00 0.00 79 1010.8
20260831033001 73 254 4.0 7.0 0.00 0.00 0.00 74 1010.4
20260831031601 73 214 4.0 8.0 0.00 0.00 0.00 71 1010.2
20260831030100 73 248 3.0 8.0 0.00 0.00 0.00 72 1010.1
20260831024611 73 236 6.0 11.0 0.00 0.00 0.00 74 1010.0
20260831023058 73 236 9.0 14.0 0.00 0.00 0.00 75 1009.8